Notices

What's New in latest Release from April 7th, 2021:

- Updated Glossary, including Speed of Maximum Gust, and Total Hourly Precipitation

- Updated national and regional climate services offices contacts and prices information

- Addition of station inventory lists for 1981-2010, 1971-2000, and 1961-1990 Normals.

If you haven't already, please take our survey and provide feedback about our website: https://eccc.sondage-survey.ca/f/LanguageSelection.aspx?s=442ca660-fcf1-47c0-95a9-59707d6fd709

Hourly Data Report for December 23, 2020

FORT GOOD HOPE CS
NORTHWEST TERRITORIES
Current Station Operator: ECCC - MSC

66°14'32.044" N
128°38'39.081" W
81.70 m
2201450
71491
ZGH

Download Data

Hourly Data (December 2020)
Hourly Data Report for December 23, 2020
TIME
LST
Temp Definition
°C
Dew Point Definition
°C
Rel Hum Definition
%
Precip. Amount Definition
mm

Wind Dir Definition
10's deg

Wind Spd Definition
km/h
Visibility Definition
km
Stn Press Definition
kPa
Hmdx Definition


Wind Chill Definition


Weather Definition


00:00 -24.9 -27.8 77 0.0 7 6   99.69   -31 LegendNANA
01:00 -24.3 -27.1 77 0.0 7 10   99.57   -32 LegendNANA
02:00 -24.3 -27.2 77 0.0 7 7   99.50   -31 LegendNANA
03:00 -24.4 -27.4 77 0.0 7 7   99.47   -31 LegendNANA
04:00 -24.6 -27.6 76 0.0 8 9   99.41   -32 LegendNANA
05:00 -24.8 -27.8 76 0.0 7 9   99.34   -32 LegendNANA
06:00 -24.9 -27.9 76 0.0 8 9   99.24   -33 LegendNANA
07:00 -24.2 -27.1 77 0.0 6 7   99.15   -31 LegendNANA
08:00 -24.3 -27.2 76 0.0 8 9   98.93   -32 LegendNANA
09:00 -24.3 -27.2 77 0.0 7 7   98.86   -31 LegendNANA
10:00 -23.6 -26.5 77 0.0 7 10   98.71   -32 LegendNANA
11:00 -23.2 -26.0 77 0.0 7 7   98.66   -29 LegendNANA
12:00 -22.6 -25.4 78 0.0 7 7   98.55   -29 LegendNANA
13:00 -22.0 -24.8 78 0.0 8 9   98.44   -29 LegendNANA
14:00 -21.3 -24.0 78 0.0 8 7   98.37   -27 LegendNANA
15:00 -20.8 -23.6 78 0.0 6 8   98.35   -27 LegendNANA
16:00 -20.2 -22.8 80 0.4 7 6   98.31   -25 LegendNANA
17:00 -20.0 -22.6 80 0.0 8 7   98.27   -26 LegendNANA
18:00 -19.8 -22.5 80 0.0 6 5   98.27   -24 LegendNANA
19:00 -19.7 -22.4 79 0.0 5 4   98.34   -23 LegendNANA
20:00 -19.4 -22.0 79 0.0 6 3   98.30   -22 LegendNANA
21:00 -19.1 -21.6 81 0.0 10 2   98.32   -21 LegendNANA
22:00 -19.0 -21.4 81 0.6 11 6   98.28   -24 LegendNANA
23:00 -18.7 -21.1 81 0.9 11 2   98.31   -20 LegendNANA

Notes on Data Quality.

Legend

  • E = Estimated
  • M = Missing
  • NA = Not Available*
  • [empty] = Indicates an unobserved value
Date modified: